Powrót do katalogu

ARIANE 5 R/B

AktywnySSO
NORAD 28499·ROCKET BODY·🇫🇷 France

Wystrzelony Dec 18, 2004 z Guiana Space Centre

Loading…

Następne Przeloty (najbliższe 24 godziny)

TLE

ŚwieżeSource: Space-Track

Epoka: Sep 14, 2026, 22:03 UTC

1 28499U 04049H   26257.91880352  .00000591  00000-0  71039-4 0  9996
2 28499  98.2790  73.6906 0084987  97.6915 263.3960 14.85558722173886

Śledź ARIANE 5 R/B w czasie rzeczywistym z AllMySat

Download on the App Store